This demonstration page uses our WeatherBlox Daily Observations layout. Learn more.

Left ArrowRight Arrow

36.17497, -115.13722

Hourly Observations for June 20, 2019

Temp ( °F °C ) Dew Point ( °F °C ) Humidity (%) Winds ( mph kmh ) Pressure ( in mb ) Visibility ( mi km ) Precip ( " mm )
12:53 am 00:53 Clear 90 32.2 30 -1.1 12 12 S 10 17 29.70 1006 10 16 0.00 0.00
1:53 am 01:53 Clear 89 31.7 34 1.1 14 14 S 17 28 29.68 1005 10 16 0.00 0.00
2:53 am 02:53 Clear 88 31.1 42 5.6 20 20 S 15 24 29.68 1005 10 16 0.00 0.00
3:53 am 03:53 Clear 85 29.4 34 1.1 16 16 Calm 29.69 1005 10 16 0.00 0.00
4:53 am 04:53 Clear 81 27.2 34 1.1 18 18 NNW 3 6 29.70 1006 10 16 0.00 0.00
5:53 am 05:53 Sunny 81 27.2 41 5 24 24 ENE 3 6 29.71 1006 10 16 0.00 0.00
6:53 am 06:53 Sunny 84 28.9 39 3.9 20 20 E 8 13 29.72 1006 10 16 0.00 0.00
7:53 am 07:53 Sunny 87 30.6 42 5.6 21 21 ESE 9 15 29.72 1006 10 16 0.00 0.00
8:53 am 08:53 Sunny 91 32.8 47 8.3 22 22 SSE 10 17 29.71 1006 10 16 0.00 0.00
9:53 am 09:53 Sunny 94 34.4 47 8.3 20 20 S 10 17 29.69 1005 10 16 0.00 0.00
10:53 am 10:53 Sunny 98 36.7 43 6.1 15 15 S 20 31 29.66 1004 10 16 0.00 0.00
11:53 am 11:53 Sunny 100 37.8 40 4.4 13 13 S 24 39 29.64 1004 10 16 0.00 0.00
12:53 pm 12:53 Sunny 101 38.3 38 3.3 11 11 SSW 22 35 29.62 1003 10 16 0.00 0.00
1:53 pm 13:53 Sunny 102 38.9 39 3.9 11 11 SSW 22 35 29.59 1002 10 16 0.00 0.00
2:53 pm 14:53 Sunny 102 38.9 37 2.8 10 10 SW 20 31 29.57 1001 10 16 0.00 0.00
3:53 pm 15:53 Sunny 102 38.9 34 1.1 9 9 SW 20 31 29.54 1001 10 16 0.00 0.00
4:53 pm 16:53 Sunny 102 38.9 34 1.1 9 9 SW 26 43 29.52 1000 10 16 0.00 0.00
5:53 pm 17:53 Sunny 101 38.3 30 -1.1 8 8 WSW 20 31 29.51 999 10 16 0.00 0.00
6:53 pm 18:53 Sunny 99 37.2 29 -1.7 8 8 SW 18 30 29.51 999 10 16 0.00 0.00
7:53 pm 19:53 Sunny 95 35 28 -2.2 9 9 SSW 21 33 29.52 1000 10 16 0.00 0.00
8:53 pm 20:53 Clear 92 33.3 33 0.6 12 12 SW 17 28 29.53 1000 10 16 0.00 0.00
9:53 pm 21:53 Clear 88 31.1 36 2.2 16 16 SSW 24 39 29.53 1000 10 16 0.00 0.00
10:53 pm 22:53 Clear 86 30 38 3.3 18 18 SW 18 30 29.52 1000 10 16 0.00 0.00
11:53 pm 23:53 Clear 84 28.9 38 3.3 19 19 SSE 13 20 29.50 999 10 16 0.00 0.00

Powered by AerisWeather